Flag for Germany Weather past 2 weeks in Zittau, Saxony, Germany

Now
32 °F

Fog.


Feels Like: 29 °F
Forecast: 23 / 33 °F
Wind: 3 mph from Northwest

Location: Liberec

Current Time: Jan 25, 2015 at 3:44:57 PM

Latest Report: Jan 25, 2015 at 3:00 PM


Visibility: 5 mi

Pressure: 30.27 "Hg

Humidity: 95%

Dew point: 31 °F

Location of ZittauLocation

Historic Weather in Zittau — Graph

°F

Zittau temperature yesterday

Maximum temperature yesterday: 30 °F (at 2:00 PM)
Minimum temperature yesterday: 27 °F (at 7:00 PM)
Average temperature yesterday: 29 °F

Past Weeks' High & Low Weather Summary

 TemperatureHumidityPressure
High56 °F (Jan 10, 2:00 PM)100% (Jan 17, 8:00 PM)30.27 "Hg (Jan 17, 8:00 PM)
Low27 °F (Jan 24, 7:00 PM)45% (Jan 14, 12:00 AM)29.60 "Hg (Jan 10, 2:00 PM)
Average36 °F85%29.98 "Hg
* Reported Jan 10 2:00 PM — Jan 25 2:00 PM, Zittau, Weather by CustomWeather, © 2014

Note: Actual official high and low records may vary slightly from our data, if they occured in-between our weather recording intervals... More about our weather records

Advertising

Zittau weather history for previous 24 hours

 ConditionsComfort  
Time TempWeatherWind HumidityBarometerVisibility
2:00 PM
Jan 25
32 °FFog.5 mph96%30.26 "Hg4 mi
1:00 PM31 °FLow clouds.3 mph98%30.26 "Hg3 mi
12:00 PM31 °FLow clouds.5 mph98%30.27 "Hg4 mi
11:00 AM31 °FLight snow. Low clouds.6 mph100%30.27 "Hg2 mi
10:00 AM31 °FLow clouds.5 mph100%30.26 "Hg2 mi
9:00 AM31 °FLight freezing rain. Ice fog.6 mph100%30.23 "Hg0 mi
8:00 AM31 °FLight snow. Low clouds.3 mph100%30.21 "Hg1 mi
7:00 AM30 °FLight snow. Low clouds.5 mph100%30.19 "Hg1 mi
6:00 AM30 °FChilly.3 mph100%30.17 "Hg2 mi
5:00 AM30 °FDrizzle. Overcast.3 mph100%30.16 "Hg1 mi
4:00 AM29 °FDrizzle. Overcast.3 mph100%30.16 "Hg1 mi
3:00 AM29 °FDrizzle. Overcast.3 mph96%30.15 "Hg1 mi
2:00 AM29 °FFog.2 mph93%30.15 "Hg4 mi
1:00 AM29 °FFog.2 mph92%30.15 "Hg4 mi
12:00 AM28 °FChilly.2 mph90%30.15 "Hg6 mi
11:00 PM
Jan 24
28 °FFog.2 mph95%30.14 "Hg4 mi
10:00 PM28 °FFog.1 mph96%30.14 "Hg4 mi
9:00 PM28 °FFog.1 mph96%30.14 "Hg4 mi
8:00 PM28 °FFog.2 mph95%30.13 "Hg4 mi
7:00 PM27 °FFog.2 mph94%30.12 "Hg4 mi
6:00 PM28 °FFog.5 mph94%30.10 "Hg4 mi
5:00 PM28 °FFog.1 mph91%30.08 "Hg5 mi
4:00 PM29 °FFog.3 mph89%30.08 "Hg5 mi
3:00 PM30 °FFog.2 mph85%30.08 "Hg6 mi
Weather by CustomWeather, © 2014

See weather overviewHow to use our weather pages